Location: Rounton
(54.4000°N, 1.3500°W)
Time: 18:18:26
(UTC+01:00)

S-56A Canister/Altair - Pass Details

Date: 09 September 2024
Orbit: 636 x 2487 km, 38.9° (Epoch: 06 October)

Event Time Altitude Azimuth Distance (km) Brightness Sun altitude
Rises 21:46:56 0° 222° (SW) 3,872 11.2 -18.2°
Reaches altitude 10° 21:49:48 10° 209° (SSW) 3,160 10.6 -18.5°
Maximum altitude 21:56:12 26° 156° (SSE) 2,639 9.7 -19.3°
Enters shadow 21:57:19 26° 146° (SE) 2,748 9.7 -19.4°
Drops below altitude 10° 22:04:48 10° 107° (ESE) 4,346 - -20.2°
Sets 22:09:33 0° 97° (E) 5,637 - -20.7°
